THOR ABLESTAR R/B, 59

Orbit data source: Space-Track

THOR ABLESTAR R/B, 59 is space debris in LEO originally from a launch on Tue, 04 Oct 1960 UTC launched from the Air Force Eastern Test Range (AFETR). Debris objects in space refer to the collection of defunct objects orbiting the Earth. Examples of debris include non-operational satellites, rocket bodies, and fragments generated from explosions, collisions, or faulty payload assembly.

Loading next visibility...
Identifier
59, 1960-013B
Orbit
LEO
Country
Flag of USUS
Related business
Manufacturer
Aerojet
Mission
Spacecraft
Bus & Motor
ABLESTAR, Unknown motor
Mass
600 kg wet, 600 kg dry
Launch date (UTC)
1960-10-04 (66 years ago)
Launch vehicle
Unknown
Launch site
Air Force Eastern Test Range (AFETR)
Object type
Payload
Rocket body
Debris
Shape & HBR
Unknown
Radar Cross Section
Large (>1 m²)

Expand to show TLE details & history
Last TLE update: 12 hours ago

TLE from 12 hours ago
0 THOR ABLESTAR R/B
1 00059U 60013B   26106.61552335  .00000097  00000-0  95476-5 0  9991
2 00059  28.2482  79.8983 0188999 158.8984 201.9480 13.53167154234822
Epoch: 2026-04-16T14:46Z
TLE epoch observation values (Epoch: 2026-04-16T14:46:21.217Z)
Latitude
0.00001°
Longitude
13.5494°
Altitude
1,189.729 km
Speed
7.197 km/s
True Right ascension
05h 19m 35s
True Declination
0° 00' 00"
Sunlit
Object was in daylight at epoch
Visualization orbit readout
Latitude
Unknown
Longitude
Unknown
Altitude
Unknown
Speed
Unknown
Apparent Right ascension
Unknown
Apparent Declination
Unknown
Sunlit
N/A
Visualization observer readout
Local Sidereal Time
09:39:21
Azimuth
Unknown
Elevation
Unknown
Doppler factor
Unknown
Orbital elements
Apogee altitude
1,205.234 km
Perigee altitude
923.902 km
Semi-major axis
7,442.705 km
Eccentricity
0.0189
Inclination
28.2482°
RAAN
79.8983°
Arg. of periapsis
158.8984°
True anomaly
201.15591°
Mean anomaly
201.948°
Eccentric anomaly
201.55024°
Mean motion
3.38024 °/min
Orbital period
106.5 mins
BSTAR
0.0000095476
Loading maneuver chart data...
Computing Atmospheric mass density...
Loading historical data...
Loading historical data...
Loading historical data...
Loading historical data...
Loading historical data...
Loading historical data...
Loading historical data...
Other satellites on launch #13 in the year 1960 (1960-10-04 UTC)

Documentation

Showing up to 5 results
|